virtualACA

Welcome To Vancouver International Airport CYVR

Hub Roster

Pilot Domicile Rank
Brian Kozushka - ACA1102CanadaChief Pilot
Jean-Michel Lazare - ACA2310FranceChief Pilot
Celso Silva - ACA3173BrazilSenior Captain
Robert Zolliecoffer - ACA3242United StatesNew Hire
Julien Chabbey - ACA3244SwitzerlandNew Hire

Current Vatsim Weather


CYVR 191100Z 29024G30KT 20SM BKN056 15/07 A3010 RMK SC7 SLP194
Vancouver International Airport